Weather History for Copper Mountain, CO

Change the Weather History Date:

Friday, May 10, 2013

  Actual Average (KLXV) Record (KLXV)
Temperature  
Mean Temperature 34 °F -  
Max Temperature 41 °F 52 °F 64 °F (1991)
Min Temperature 28 °F 26 °F 13 °F (1986)
Degree Days  
Heating Degree Days 30 26  
Month to date heating degree days 275  
Since 1 July heating degree days 10276  
Cooling Degree Days 0 0  
Month to date cooling degree days 0  
Year to date cooling degree days 0  
Moisture  
Dew Point 23 °F    
Average Humidity 64    
Maximum Humidity 80    
Minimum Humidity 42    
Precipitation  
Precipitation 0.00 in 0.03 in 0.25 in (2008)
Month to date precipitation 0.30  
Year to date precipitation 3.63  
Sea Level Pressure  
Sea Level Pressure 30.44 in    
Wind  
Wind Speed 8 mph (WNW)    
Max Wind Speed 18 mph    
Max Gust Speed 28 mph    
Visibility 10 miles    
Events Snow , Thunderstorm    
T = Trace of Precipitation, MM = Missing Value Source: NWS Daily Summary

Daily Weather History Graph

Daily Weather History Graph

Search for Another Location

Airport:

Trip Planner

Search our weather history database for the weather conditions in past years. The results will help you decide how hot, cold, wet, or windy it might be!

Date:

Astronomy

May. 10, 2013 Rise Set
Actual Time 5:55 AM MDT 8:07 PM MDT
Civil Twilight 5:25 AM MDT 8:37 PM MDT
Nautical Twilight 4:48 AM MDT 9:14 PM MDT
Astronomical Twilight 4:08 AM MDT 9:54 PM MDT
Moon 6:21 AM MDT (5/10) 8:59 PM MDT (5/10)
Length of Visible Light 15h 12m
Length of Day
14h 12m
New Moon, 1% of the Moon is Illuminated
May 10
New Moon
May 17
First Quarter
May 24
Full
May 31
Last Quarter
Jun 8
New

Hourly Weather History & Observations

Time (MDT) Temp. Windchill Dew Point Humidity Pressure Visibility Wind Dir Wind Speed Gust Speed Precip Events Conditions
12:12 AM 32.0 °F 24.8 °F 17.6 °F 55% 30.38 in 10.0 mi South 8.1 mph - N/A   Clear
12:32 AM 32.0 °F 25.6 °F 19.4 °F 60% 30.38 in 10.0 mi South 6.9 mph - N/A   Clear
12:52 AM 32.0 °F 25.6 °F 19.4 °F 60% 30.38 in 10.0 mi West 6.9 mph - N/A   Clear
1:12 AM 32.0 °F 24.8 °F 19.4 °F 60% 30.38 in 10.0 mi West 8.1 mph - N/A   Clear
1:32 AM 30.2 °F 21.9 °F 19.4 °F 64% 30.38 in 10.0 mi West 9.2 mph - N/A   Clear
1:52 AM 30.2 °F 21.3 °F 19.4 °F 64% 30.37 in 10.0 mi West 10.4 mph - N/A   Clear
2:12 AM 30.2 °F 21.9 °F 19.4 °F 64% 30.37 in 10.0 mi West 9.2 mph - N/A   Clear
2:32 AM 28.4 °F 19.7 °F 19.4 °F 69% 30.36 in 10.0 mi West 9.2 mph - N/A   Clear
2:52 AM 28.4 °F 20.4 °F 17.6 °F 64% 30.36 in 10.0 mi West 8.1 mph - N/A   Clear
3:12 AM 28.4 °F 23.3 °F 17.6 °F 64% 30.36 in 10.0 mi WSW 4.6 mph - N/A   Clear
3:32 AM 30.2 °F 21.3 °F 19.4 °F 64% 30.36 in 10.0 mi West 10.4 mph - N/A   Clear
3:52 AM 28.4 °F 23.3 °F 17.6 °F 64% 30.36 in 10.0 mi WSW 4.6 mph - N/A   Clear
4:12 AM 28.4 °F 19.7 °F 17.6 °F 64% 30.36 in 10.0 mi West 9.2 mph - N/A   Clear
4:32 AM 28.4 °F 18.5 °F 17.6 °F 64% 30.36 in 10.0 mi West 11.5 mph - N/A   Clear
4:52 AM 30.2 °F 20.8 °F 21.2 °F 69% 30.36 in 10.0 mi West 11.5 mph - N/A   Clear
5:12 AM 30.2 °F 21.3 °F 21.2 °F 69% 30.36 in 10.0 mi West 10.4 mph - N/A   Scattered Clouds
5:32 AM 28.4 °F 18.5 °F 19.4 °F 69% 30.36 in 10.0 mi West 11.5 mph - N/A   Mostly Cloudy
6:12 AM 30.2 °F 21.3 °F 21.2 °F 69% 30.37 in 10.0 mi West 10.4 mph - N/A   Overcast
6:32 AM 30.2 °F 20.8 °F 21.2 °F 69% 30.38 in 10.0 mi West 11.5 mph - N/A   Mostly Cloudy
7:12 AM 30.2 °F 23.4 °F 21.2 °F 69% 30.38 in 10.0 mi West 6.9 mph - N/A   Scattered Clouds
7:32 AM 32.0 °F 26.4 °F 23.0 °F 69% 30.38 in 10.0 mi West 5.8 mph - N/A   Mostly Cloudy
7:52 AM 32.0 °F 24.2 °F 23.0 °F 69% 30.39 in 10.0 mi West 9.2 mph 17.3 mph N/A   Scattered Clouds
8:12 AM 32.0 °F 25.6 °F 23.0 °F 69% 30.40 in 10.0 mi West 6.9 mph - N/A   Scattered Clouds
8:32 AM 32.0 °F 23.6 °F 26.6 °F 80% 30.40 in 10.0 mi WNW 10.4 mph - N/A   Scattered Clouds
8:52 AM 32.0 °F 23.6 °F 24.8 °F 75% 30.41 in 10.0 mi West 10.4 mph 17.3 mph N/A   Scattered Clouds
9:12 AM 33.8 °F 28.6 °F 26.6 °F 75% 30.41 in 10.0 mi West 5.8 mph - N/A   Clear
9:32 AM 33.8 °F 27.7 °F 24.8 °F 70% 30.41 in 10.0 mi West 6.9 mph - N/A   Clear
9:52 AM 35.6 °F 30.7 °F 24.8 °F 65% 30.42 in 10.0 mi WNW 5.8 mph - N/A   Scattered Clouds
10:12 AM 35.6 °F 30.7 °F 23.0 °F 60% 30.42 in 10.0 mi NW 5.8 mph - N/A   Scattered Clouds
10:32 AM 35.6 °F 29.9 °F 23.0 °F 60% 30.42 in 10.0 mi West 6.9 mph - N/A   Scattered Clouds
11:12 AM 37.4 °F 31.4 °F 23.0 °F 56% 30.43 in 10.0 mi WNW 8.1 mph - N/A   Mostly Cloudy
11:32 AM 37.4 °F 33.8 °F 21.2 °F 52% 30.44 in 10.0 mi NNW 4.6 mph - N/A   Mostly Cloudy
11:52 AM 37.4 °F 32.1 °F 23.0 °F 56% 30.44 in 10.0 mi West 6.9 mph 16.1 mph N/A   Overcast
12:12 PM 39.2 °F 35.0 °F 23.0 °F 52% 30.44 in 10.0 mi NNW 5.8 mph - N/A   Mostly Cloudy
12:32 PM 41.0 °F 36.4 °F 23.0 °F 49% 30.44 in 10.0 mi WNW 6.9 mph - N/A Thunderstorm Thunderstorm
12:52 PM 41.0 °F 34.7 °F 21.2 °F 45% 30.44 in 10.0 mi WNW 10.4 mph - N/A Thunderstorm Mostly Cloudy
1:12 PM 41.0 °F 37.1 °F 21.2 °F 45% 30.44 in 10.0 mi WNW 5.8 mph - N/A Thunderstorm Mostly Cloudy
1:32 PM 37.4 °F 28.9 °F 21.2 °F 52% 30.44 in 10.0 mi West 13.8 mph 20.7 mph N/A Thunderstorm Thunderstorm
1:52 PM 41.0 °F 37.1 °F 19.4 °F 42% 30.44 in 10.0 mi West 5.8 mph - N/A   Scattered Clouds
2:12 PM 41.0 °F 38.0 °F 23.0 °F 49% 30.44 in 10.0 mi NW 4.6 mph - N/A   Scattered Clouds
2:32 PM 37.4 °F 27.5 °F 26.6 °F 65% 30.45 in 5.0 mi WNW 18.4 mph 27.6 mph N/A   Overcast
2:52 PM 37.4 °F 32.8 °F 26.6 °F 65% 30.46 in 10.0 mi WNW 5.8 mph 16.1 mph N/A   Overcast
3:12 PM 41.0 °F 38.0 °F 23.0 °F 49% 30.46 in 10.0 mi NNW 4.6 mph - N/A   Overcast
3:32 PM 41.0 °F 37.1 °F 21.2 °F 45% 30.45 in 10.0 mi WNW 5.8 mph - N/A   Scattered Clouds
3:52 PM 41.0 °F 38.0 °F 23.0 °F 49% 30.45 in 10.0 mi North 4.6 mph - N/A   Clear
4:32 PM 37.4 °F 32.8 °F 28.4 °F 70% 30.46 in 5.0 mi NNW 5.8 mph 17.3 mph N/A Snow Light Snow
4:52 PM 35.6 °F 30.7 °F 26.6 °F 70% 30.46 in 7.0 mi West 5.8 mph - N/A Snow Light Snow
5:12 PM 37.4 °F 33.8 °F 26.6 °F 65% 30.47 in 10.0 mi West 4.6 mph - N/A   Mostly Cloudy
5:32 PM 39.2 °F 35.0 °F 26.6 °F 61% 30.47 in 10.0 mi West 5.8 mph - N/A   Scattered Clouds
5:52 PM 37.4 °F 32.8 °F 28.4 °F 70% 30.47 in 5.0 mi West 5.8 mph - N/A Snow Light Snow
6:12 PM 37.4 °F 28.2 °F 26.6 °F 65% 30.47 in 10.0 mi West 16.1 mph - N/A   Scattered Clouds
6:32 PM 37.4 °F 30.8 °F 24.8 °F 60% 30.47 in 10.0 mi West 9.2 mph 20.7 mph N/A   Clear
6:52 PM 37.4 °F 32.8 °F 23.0 °F 56% 30.47 in 10.0 mi West 5.8 mph 17.3 mph N/A   Scattered Clouds
7:12 PM 37.4 °F 32.8 °F 26.6 °F 65% 30.48 in 10.0 mi WNW 5.8 mph - N/A   Scattered Clouds
7:32 PM 35.6 °F 29.9 °F 26.6 °F 70% 30.49 in 10.0 mi West 6.9 mph - N/A   Clear
7:52 PM 37.4 °F 32.1 °F 26.6 °F 65% 30.49 in 10.0 mi West 6.9 mph 16.1 mph N/A   Mostly Cloudy
8:12 PM 35.6 °F 30.7 °F 26.6 °F 70% 30.50 in 10.0 mi North 5.8 mph - N/A   Mostly Cloudy
8:32 PM 33.8 °F 29.6 °F 26.6 °F 75% 30.51 in 10.0 mi WNW 4.6 mph - N/A   Scattered Clouds
8:52 PM 33.8 °F 28.6 °F 23.0 °F 65% 30.52 in 10.0 mi West 5.8 mph - N/A   Clear
9:12 PM 33.8 °F 29.6 °F 24.8 °F 70% 30.53 in 10.0 mi NW 4.6 mph - N/A   Scattered Clouds
9:32 PM 33.8 °F 30.8 °F 23.0 °F 65% 30.53 in 10.0 mi WSW 3.5 mph - N/A   Scattered Clouds
9:52 PM 33.8 °F 27.7 °F 24.8 °F 70% 30.54 in 10.0 mi NNE 6.9 mph - N/A   Scattered Clouds
10:12 PM 33.8 °F 30.8 °F 24.8 °F 70% 30.54 in 10.0 mi NW 3.5 mph - N/A   Scattered Clouds
10:32 PM 33.8 °F 25.8 °F 26.6 °F 75% 30.54 in 10.0 mi NNE 10.4 mph - N/A   Clear
10:52 PM 33.8 °F 26.4 °F 26.6 °F 75% 30.54 in 10.0 mi ENE 9.2 mph - N/A   Clear
11:12 PM 33.8 °F 26.4 °F 26.6 °F 75% 30.55 in 10.0 mi NE 9.2 mph - N/A   Clear
11:32 PM 33.8 °F 26.4 °F 26.6 °F 75% 30.55 in 10.0 mi NNE 9.2 mph - N/A   Clear
11:52 PM 33.8 °F 24.8 °F 26.6 °F 75% 30.56 in 10.0 mi NNE 12.7 mph - N/A   Clear